[[{"header":{"parameterUnit":"m.s-1","parameterCategory":1,"la1":30.2991,"la2":30.254,"lo1":-89.0895,"lo2":-89.0444,"dy":0.0017,"dx":0.0017,"nx":28,"ny":28,"refTime":"2024-04-12T03:00:00:Z","depth":0,"parameterNumber":2,"parameterNumberName":"U-component_of_WINDS"},"data":[0,0,0,0,0,0,0,0,0,0,0,0,0,0,0,0,0,0,0,0,0,0,0,0,0,0,0,0,0,0,0,0,0,0,0,0,0,0,0,0,0,0,0,0,0,0,0,0,0,0,0,0,0,0,0,0,0,0,1.5153,1.5154,0,1.5279,1.528,1.5282,1.533,1.533,1.5329,1.5329,1.5457,1.546,1.5464,0,0,0,0,0,0,0,0,0,0,0,0,0,1.495,1.4953,1.5152,1.5154,1.5156,1.5279,1.528,1.5282,1.533,1.533,1.5329,1.5329,1.5456,1.546,1.5464,0,0,0,0,0,0,0,0,0,0,0,0,0,1.5053,1.4955,1.5152,1.5194,1.5199,1.5278,1.528,1.5283,1.533,1.533,1.5329,1.5329,1.5454,1.546,1.5465,1.5511,0,0,1.5482,1.5485,0,0,0,0,0,0,0,0,1.5047,1.506,1.5187,1.5192,1.5197,1.5288,1.5256,1.5359,1.533,1.5281,1.5329,1.5328,1.5401,1.5411,1.5436,1.5517,1.5522,1.5483,1.5486,1.5489,1.549,0,0,0,0,0,0,0,1.504,1.5055,1.5202,1.5188,1.5195,1.5206,1.522,1.5276,1.5342,1.5285,1.5289,1.5303,1.5404,1.543,1.5439,1.5524,1.5483,1.5488,1.5491,1.5493,1.5647,1.5648,0,0,0,0,0,0,1.5026,1.5049,1.5198,1.5206,1.512,1.521,1.5226,1.526,1.5342,1.5354,1.5303,1.5305,1.5421,1.5433,1.5444,1.5502,1.5488,1.5494,1.5497,1.5646,1.5647,1.5648,0,0,0,0,0,0,1.5022,1.5039,1.5193,1.5129,1.5149,1.5214,1.5252,1.5262,1.5289,1.5356,1.5368,1.5318,1.5421,1.5436,1.5493,1.5507,1.5496,1.5501,1.5645,1.5647,1.5648,1.5618,0,0,0,0,0,0,1.5016,1.5037,1.5056,1.5129,1.5153,1.5242,1.5253,1.5265,1.5299,1.5302,1.5373,1.5384,1.5422,1.5485,1.5499,1.5514,1.5506,1.5645,1.5646,1.5647,1.5618,1.5618,1.5618,0,0,0,0,0,1.5008,1.5043,1.5057,1.5074,1.5177,1.5242,1.5256,1.5299,1.53,1.5318,1.5361,1.5382,1.5503,1.549,1.5507,1.5524,1.5644,1.5646,1.5647,1.5618,1.5618,1.5618,0,0,0,0,0,0,1.4969,1.5053,1.5069,1.5129,1.5178,1.525,1.5275,1.5297,1.5347,1.5348,1.5398,1.5414,1.5467,1.5501,1.5486,1.5572,1.5575,1.558,1.5547,1.5548,1.5548,1.5538,1.551,0,0,0,0,0,1.4967,1.5014,1.5084,1.513,1.5154,1.521,1.524,1.5269,1.5321,1.5342,1.539,1.544,1.5489,1.552,1.5569,1.5623,1.5639,1.5643,1.5643,1.5643,1.5646,1.5676,1.5679,1.5653,1.5653,1.5653,0,0,1.4964,1.5016,1.5042,1.5123,1.5165,1.521,1.5227,1.5276,1.531,1.535,1.5407,1.5443,1.5502,1.5558,1.5584,1.5588,1.5657,1.5645,1.5644,1.5648,1.5678,1.5681,1.5683,1.5654,1.5654,1.5654,0,0,1.4982,1.5026,1.5068,1.5109,1.5172,1.5209,1.5219,1.5288,1.5314,1.5372,1.5403,1.5444,1.5528,1.5568,1.56,1.5631,1.5652,1.5646,1.5645,1.5674,1.5676,1.5678,1.5688,1.5692,1.5649,1.5649,1.5649,0,1.497,1.5041,1.5087,1.5133,1.5167,1.5206,1.5248,1.5286,1.5361,1.5383,1.5386,1.5491,1.5534,1.5599,1.5606,1.5631,1.5643,1.5638,1.5672,1.5674,1.5677,1.5687,1.5691,1.5648,1.5648,1.5648,1.5648,0,1.5023,1.5072,1.5098,1.517,1.5207,1.5251,1.5302,1.5334,1.5359,1.5395,1.5453,1.5506,1.5565,1.5583,1.5608,1.5651,1.5651,1.5662,1.5666,1.5677,1.5688,1.5693,1.5646,1.5647,1.5647,1.5647,0,0,1.502,1.5116,1.5125,1.5158,1.5229,1.5267,1.5312,1.5371,1.5397,1.5447,1.5486,1.5555,1.5566,1.5601,1.5631,1.5656,1.5676,1.5664,1.5666,1.5664,1.5726,1.5717,1.5721,1.5691,1.5692,1.5692,1.5721,0,1.5047,1.513,1.5172,1.5236,1.5281,1.5318,1.5357,1.5404,1.5439,1.5482,1.552,1.5568,1.5579,1.56,1.5627,1.5668,1.569,1.5667,1.5726,1.5728,1.571,1.5727,1.5718,1.5743,1.5726,1.5726,1.5727,0,1.5089,1.5139,1.5209,1.5274,1.5294,1.5329,1.5386,1.5426,1.548,1.5504,1.5543,1.5572,1.5619,1.562,1.5686,1.5669,1.5696,1.5719,1.5721,1.5728,1.5728,1.5734,1.5752,1.5755,1.5734,1.5734,1.5733,0,1.5079,1.5164,1.5216,1.5243,1.5321,1.5344,1.5377,1.5431,1.5463,1.5512,1.5534,1.5587,1.5617,1.5657,1.5699,1.5696,1.5761,1.5765,1.5781,1.578,1.5793,1.5791,1.5815,1.581,1.581,1.581,1.581,0,1.5104,1.5145,1.5213,1.5245,1.5291,1.5338,1.5382,1.5418,1.5465,1.5504,1.5538,1.5574,1.5628,1.567,1.5703,1.5752,1.5765,1.5784,1.5793,1.5781,1.5779,1.5799,1.5798,1.5811,1.5811,1.5811,1.5811,0,1.5101,1.5148,1.5207,1.5276,1.5294,1.5325,1.5383,1.5415,1.5451,1.55,1.5514,1.5571,1.5622,1.5668,1.5736,1.5758,1.5807,1.5818,1.5789,1.5794,1.5807,1.5805,1.5844,1.5851,1.5842,1.5842,1.5842,0,1.5114,1.5146,1.5218,1.5247,1.528,1.5325,1.5359,1.5405,1.5438,1.5502,1.5525,1.5579,1.5625,1.5704,1.5751,1.5803,1.5814,1.5825,1.5822,1.581,1.5814,1.5811,1.5815,1.5824,1.5824,1.5824,1.5824,0,1.5131,1.5153,1.5199,1.5254,1.5293,1.5338,1.5384,1.5405,1.546,1.5495,1.5548,1.5583,1.5652,1.5705,1.5761,1.5795,1.5818,1.5824,1.583,1.5819,1.5801,1.581,1.5788,1.5823,1.5823,1.5823,1.5823,1.5823,1.5136,1.5166,1.5221,1.5272,1.5311,1.5353,1.5387,1.5427,1.5472,1.5532,1.5557,1.561,1.5662,1.5741,1.5774,1.5816,1.582,1.583,1.5832,1.5833,1.5831,1.5794,1.5826,1.5826,1.5826,1.5827,1.5827,0,1.5155,1.5192,1.5238,1.5302,1.5341,1.536,1.5412,1.5443,1.549,1.5537,1.5581,1.5641,1.5691,1.5742,1.5795,1.5819,1.5831,1.5831,1.583,1.5837,1.5824,1.5813,1.582,1.582,1.582,1.582,1.582,1.582,1.5169,1.5221,1.5248,1.5319,1.5356,1.5409,1.5437,1.5475,1.5513,1.5579,1.5621,1.5654,1.5702,1.5759,1.5806,1.5819,1.5837,1.5834,1.5851,1.5838,1.5838,1.5838,1.5828,1.5838,1.5838,1.586,1.586,1.586]},{"header":{"parameterUnit":"m.s-1","parameterCategory":1,"la1":30.2991,"la2":30.254,"lo1":-89.0895,"lo2":-89.0444,"dy":0.0017,"dx":0.0017,"nx":28,"ny":28,"refTime":"2024-04-12T03:00:00:Z","depth":0,"parameterNumber":3,"parameterNumberName":"V-component_of_WINDS"},"data":[0,0,0,0,0,0,0,0,0,0,0,0,0,0,0,0,0,0,0,0,0,0,0,0,0,0,0,0,0,0,0,0,0,0,0,0,0,0,0,0,0,0,0,0,0,0,0,0,0,0,0,0,0,0,0,0,0,0,3.8653,3.8653,0,3.864,3.864,3.864,3.8583,3.8581,3.858,3.8579,3.8566,3.8567,3.8568,0,0,0,0,0,0,0,0,0,0,0,0,0,3.8629,3.863,3.8653,3.8653,3.8653,3.864,3.864,3.864,3.8583,3.8581,3.858,3.8578,3.8566,3.8567,3.8568,0,0,0,0,0,0,0,0,0,0,0,0,0,3.863,3.863,3.8653,3.8623,3.862,3.864,3.864,3.864,3.8583,3.8581,3.8579,3.8577,3.8566,3.8567,3.8569,3.8618,0,0,3.8573,3.8573,0,0,0,0,0,0,0,0,3.863,3.8631,3.8628,3.8625,3.8622,3.8611,3.8627,3.8633,3.8584,3.8597,3.8579,3.8576,3.8583,3.8583,3.8585,3.8617,3.8616,3.8573,3.8574,3.8574,3.8575,0,0,0,0,0,0,0,3.863,3.8631,3.8648,3.8628,3.8624,3.861,3.8608,3.8628,3.8602,3.8596,3.8592,3.8591,3.8581,3.8584,3.8584,3.8616,3.8573,3.8574,3.8575,3.8576,3.8687,3.8689,0,0,0,0,0,0,3.8634,3.8632,3.8649,3.8648,3.8621,3.8612,3.861,3.8617,3.8601,3.8597,3.8593,3.8588,3.8582,3.8583,3.8584,3.8639,3.8574,3.8576,3.8576,3.8685,3.8688,3.869,0,0,0,0,0,0,3.8634,3.8636,3.8649,3.8639,3.8639,3.8615,3.8623,3.8617,3.862,3.8599,3.8594,3.86,3.8581,3.8582,3.8609,3.8638,3.8576,3.8578,3.8683,3.8686,3.8689,3.8751,0,0,0,0,0,0,3.8634,3.8637,3.8655,3.8639,3.864,3.8675,3.8625,3.8619,3.8622,3.8617,3.8604,3.8601,3.8579,3.8608,3.8611,3.8639,3.8579,3.868,3.8684,3.8688,3.8746,3.8756,3.8764,0,0,0,0,0,3.8633,3.8673,3.8656,3.8658,3.8662,3.8677,3.8677,3.8651,3.8625,3.8643,3.8629,3.8601,3.8635,3.8611,3.8614,3.8643,3.8678,3.8683,3.8688,3.8742,3.8754,3.8764,0,0,0,0,0,0,3.8693,3.8671,3.8651,3.8688,3.8685,3.8667,3.8689,3.8665,3.8669,3.8664,3.8632,3.863,3.8662,3.8655,3.8629,3.8689,3.8651,3.8657,3.8692,3.8703,3.8712,3.8712,3.858,0,0,0,0,0,3.871,3.8724,3.8704,3.8738,3.8737,3.8714,3.8719,3.87,3.8695,3.8694,3.8682,3.8679,3.8689,3.8696,3.8704,3.8746,3.8742,3.8767,3.8776,3.8784,3.8788,3.8809,3.882,3.8706,3.8706,3.8706,0,0,3.8746,3.8736,3.8746,3.875,3.8745,3.8759,3.8713,3.8731,3.8741,3.8696,3.8721,3.8713,3.8707,3.8742,3.8757,3.8738,3.8819,3.879,3.8796,3.8796,3.8816,3.8826,3.8836,3.8709,3.8708,3.8708,0,0,3.8819,3.8813,3.884,3.8837,3.883,3.8814,3.8821,3.8807,3.8799,3.8824,3.8791,3.8803,3.8821,3.8818,3.8819,3.8891,3.8865,3.8895,3.8941,3.8962,3.8971,3.8979,3.9004,3.9013,3.89,3.89,3.89,0,3.8865,3.8885,3.8858,3.8877,3.8879,3.884,3.8867,3.8865,3.8861,3.8864,3.8842,3.8863,3.8857,3.889,3.8908,3.891,3.8917,3.8896,3.8972,3.898,3.8987,3.901,3.902,3.8904,3.8904,3.8903,3.8903,0,3.8942,3.8956,3.8979,3.8976,3.8981,3.9005,3.8981,3.8989,3.897,3.8956,3.8982,3.8973,3.8978,3.8985,3.8966,3.9016,3.9003,3.8978,3.8939,3.9002,3.9023,3.9032,3.8909,3.8908,3.8907,3.8906,0,0,3.9051,3.9032,3.9041,3.9039,3.9029,3.904,3.9062,3.9066,3.9074,3.9073,3.909,3.9106,3.9082,3.9083,3.9064,3.9083,3.914,3.9055,3.9054,3.907,3.9193,3.9211,3.9222,3.9123,3.9125,3.9126,3.9193,0,3.912,3.9155,3.9131,3.917,3.9183,3.9146,3.9165,3.9161,3.9149,3.9159,3.9146,3.9157,3.9125,3.9126,3.9142,3.9129,3.9164,3.9124,3.9138,3.9139,3.9139,3.9234,3.9253,3.9317,3.9201,3.9203,3.9204,0,3.9204,3.9206,3.9247,3.9234,3.9238,3.9256,3.9258,3.9268,3.9263,3.9253,3.9254,3.923,3.9251,3.9214,3.9242,3.9215,3.922,3.9214,3.9216,3.9215,3.9174,3.9234,3.9337,3.9346,3.9217,3.9216,3.9215,0,3.9278,3.9292,3.9318,3.9317,3.9303,3.9316,3.9311,3.9303,3.9308,3.931,3.9312,3.9317,3.932,3.9324,3.9302,3.9278,3.9333,3.9294,3.9325,3.9325,3.9337,3.9336,3.944,3.9342,3.9342,3.9342,3.9342,0,3.9357,3.9383,3.9351,3.9366,3.9395,3.9367,3.9396,3.9387,3.9381,3.9394,3.9363,3.9376,3.9347,3.9358,3.9341,3.9366,3.9368,3.936,3.9355,3.9362,3.9363,3.9364,3.9358,3.9345,3.9344,3.9343,3.9343,0,3.9444,3.9423,3.9449,3.9433,3.943,3.9451,3.9438,3.9452,3.9438,3.9456,3.9458,3.9437,3.9448,3.9427,3.9435,3.9424,3.9459,3.9448,3.946,3.9456,3.9488,3.9485,3.9595,3.9607,3.9503,3.9504,3.9505,0,3.9494,3.9513,3.95,3.9506,3.9502,3.9514,3.9518,3.9492,3.9497,3.9493,3.9507,3.9516,3.952,3.954,3.9525,3.9531,3.9519,3.9557,3.952,3.9526,3.9518,3.9517,3.9518,3.9564,3.9566,3.9567,3.9568,0,3.9586,3.9575,3.9582,3.9585,3.9591,3.9592,3.9592,3.9599,3.9571,3.9579,3.959,3.9594,3.9602,3.961,3.9613,3.9608,3.9583,3.958,3.9587,3.9594,3.96,3.9596,3.948,3.9577,3.9576,3.9575,3.9575,3.9575,3.9655,3.967,3.9663,3.9671,3.9668,3.9668,3.968,3.9668,3.9676,3.968,3.9665,3.9679,3.9673,3.9674,3.9672,3.9683,3.9665,3.9676,3.9679,3.9681,3.9686,3.9599,3.9683,3.9683,3.9683,3.9682,3.9682,0,3.9744,3.9738,3.9746,3.9746,3.9753,3.9729,3.9727,3.9734,3.9747,3.9744,3.9749,3.9761,3.9769,3.9756,3.9761,3.9772,3.9761,3.9775,3.9773,3.9772,3.9701,3.9694,3.9784,3.9784,3.9784,3.9784,3.9784,3.9784,3.9791,3.9815,3.9803,3.9825,3.9818,3.9831,3.9832,3.9832,3.9829,3.9844,3.985,3.9841,3.9834,3.9839,3.9845,3.9841,3.9844,3.9861,3.9853,3.9787,3.9777,3.9768,3.976,3.9862,3.9863,3.9923,3.9923,3.9924]}]]